Weather History for Tallahassee, FL

Change the Weather History Date:

Saturday, February 2, 2013

  Actual Average Record
Temperature  
Mean Temperature 47 °F 52 °F  
Max Temperature 65 °F 65 °F 83 °F (1989)
Min Temperature 29 °F 40 °F 19 °F (1951)
Degree Days  
Heating Degree Days 18    
Month to date heating degree days 36  
Since 1 July heating degree days 754  
Cooling Degree Days 0    
Month to date cooling degree days 0  
Year to date cooling degree days 34  
Moisture  
Dew Point 21 °F    
Average Humidity 51    
Maximum Humidity 85    
Minimum Humidity 16    
Precipitation  
Precipitation 0.00 in 0.16 in 4.47 in (2006)
Month to date precipitation 0.00 0.32  
Year to date precipitation 0.85 4.66  
Sea Level Pressure  
Sea Level Pressure 30.29 in    
Wind  
Wind Speed 3 mph (SE)    
Max Wind Speed 12 mph    
Max Gust Speed 14 mph    
Visibility 10 miles    
Events      
T = Trace of Precipitation, MM = Missing Value Source: NWS Daily Summary

Daily Weather History Graph

Daily Weather History Graph

Search for Another Location

Airport:

Trip Planner

Search our weather history database for the weather conditions in past years. The results will help you decide how hot, cold, wet, or windy it might be!

Date:

Astronomy

Feb. 02, 2013 Rise Set
Actual Time 7:27 AM EST 6:15 PM EST
Civil Twilight 7:02 AM EST 6:40 PM EST
Nautical Twilight 6:33 AM EST 7:08 PM EST
Astronomical Twilight 6:05 AM EST 7:37 PM EST
Moon No Moon Rise 11:09 AM EST (2/2)
Length of Visible Light 11h 37m
Length of Day
10h 47m
Waning Gibbous, 60% of the Moon is Illuminated
Feb 2
Waning Gibbous
Feb 3
Last Quarter
Feb 10
New
Feb 17
First Quarter
Feb 25
Full

Hourly Weather History & Observations

Time (EST) Temp. Windchill Dew Point Humidity Pressure Visibility Wind Dir Wind Speed Gust Speed Precip Events Conditions
12:53 AM 33.1 °F - 26.1 °F 75% 30.35 in 10.0 mi Calm Calm - N/A   Clear
1:53 AM 30.9 °F - 25.0 °F 79% 30.35 in 10.0 mi Calm Calm - N/A   Clear
2:53 AM 30.0 °F - 24.1 °F 79% 30.35 in 10.0 mi Calm Calm - N/A   Clear
3:53 AM 28.4 °F - 24.8 °F 86% 30.36 in 10.0 mi Calm Calm - N/A   Clear
4:53 AM 28.9 °F - 23.0 °F 78% 30.35 in 10.0 mi Calm Calm - N/A   Clear
5:53 AM 39.0 °F 33.4 °F 15.1 °F 38% 30.36 in 10.0 mi ENE 8.1 mph - N/A   Clear
6:53 AM 37.0 °F 32.4 °F 14.0 °F 39% 30.37 in 10.0 mi ENE 5.8 mph - N/A   Clear
7:53 AM 37.0 °F 32.4 °F 15.1 °F 41% 30.38 in 10.0 mi East 5.8 mph - N/A   Clear
8:53 AM 41.0 °F 37.1 °F 12.0 °F 31% 30.38 in 10.0 mi East 5.8 mph - N/A   Clear
9:53 AM 46.0 °F 42.5 °F 9.0 °F 22% 30.39 in 10.0 mi East 6.9 mph - N/A   Clear
10:53 AM 50.0 °F - 10.0 °F 20% 30.38 in 10.0 mi ESE 4.6 mph - N/A   Clear
11:53 AM 54.0 °F - 12.0 °F 19% 30.35 in 10.0 mi Calm Calm - N/A   Clear
12:53 PM 57.0 °F - 12.9 °F 18% 30.30 in 10.0 mi Calm Calm - N/A   Clear
1:53 PM 59.0 °F - 14.0 °F 17% 30.26 in 10.0 mi Calm Calm - N/A   Partly Cloudy
2:53 PM 63.0 °F - 17.1 °F 17% 30.23 in 10.0 mi Calm Calm - N/A   Partly Cloudy
3:53 PM 64.9 °F - 19.0 °F 17% 30.21 in 10.0 mi SW 6.9 mph - N/A   Partly Cloudy
4:53 PM 64.0 °F - 19.9 °F 18% 30.21 in 10.0 mi WSW 3.5 mph - N/A   Clear
5:53 PM 62.1 °F - 24.1 °F 23% 30.19 in 10.0 mi South 5.8 mph - N/A   Clear
6:53 PM 53.1 °F - 30.0 °F 41% 30.20 in 10.0 mi South 4.6 mph - N/A   Clear
7:53 PM 50.0 °F - 30.9 °F 48% 30.22 in 10.0 mi Calm Calm - N/A   Clear
8:53 PM 45.0 °F - 32.0 °F 60% 30.21 in 10.0 mi Calm Calm - N/A   Clear
9:53 PM 41.0 °F - 32.0 °F 70% 30.21 in 10.0 mi Calm Calm - N/A   Clear
10:53 PM 39.0 °F - 30.9 °F 73% 30.21 in 10.0 mi Calm Calm - N/A   Clear
11:53 PM 39.0 °F 36.8 °F 32.0 °F 76% 30.19 in 10.0 mi SE 3.5 mph - N/A   Clear